10-03-2022, 00:00:09,    147,    0.1,    7.3,   0.00,   0.00, 1012.1,   74.2, -999.0
10-03-2022, 00:00:18,    134,    1.7,    7.4,   0.00,   0.00, 1012.1,   74.4, -999.0
10-03-2022, 00:00:28,    196,    1.6,    7.4,   0.00,   0.00, 1012.2,   74.4, -999.0
10-03-2022, 00:00:38,    195,    0.2,    7.3,   0.00,   0.00, 1012.1,   74.2, -999.0
10-03-2022, 00:00:48,    194,    0.0,    7.3,   0.00,   0.00, 1012.1,   74.1, -999.0
10-03-2022, 00:00:58,    186,    0.3,    7.3,   0.00,   0.00, 1012.2,   74.2, -999.0
10-03-2022, 00:01:08,    170,    0.1,    7.3,   0.00,   0.00, 1012.1,   74.1, -999.0
10-03-2022, 00:01:18,    158,    0.5,    7.4,   0.00,   0.00, 1012.1,   74.2, -999.0
10-03-2022, 00:01:28,    157,    0.1,    7.4,   0.00,   0.00, 1012.1,   74.4, -999.0
10-03-2022, 00:01:38,    157,    0.0,    7.4,   0.00,   0.00, 1012.1,   74.3, -999.0
10-03-2022, 00:01:48,    158,    0.0,    7.4,   0.00,   0.00, 1012.1,   74.2, -999.0
10-03-2022, 00:01:58,    157,    0.0,    7.4,   0.00,   0.00, 1012.1,   74.0, -999.0
10-03-2022, 00:02:08,    157,    0.0,    7.4,   0.00,   0.00, 1012.1,   74.1, -999.0
10-03-2022, 00:02:18,    157,    0.0,    7.4,   0.00,   0.00, 1012.1,   74.1, -999.0
10-03-2022, 00:02:28,    131,    0.1,    7.4,   0.00,   0.00, 1012.1,   74.2, -999.0
10-03-2022, 00:02:37,    131,    0.2,    7.4,   0.00,   0.00, 1012.1,   74.2, -999.0
10-03-2022, 00:02:48,    131,    0.0,    7.3,   0.00,   0.00, 1012.1,   74.2, -999.0
10-03-2022, 00:02:58,    139,    0.1,    7.4,   0.00,   0.00, 1012.1,   74.1, -999.0
10-03-2022, 00:03:07,    139,    0.0,    7.4,   0.00,   0.00, 1012.1,   74.0, -999.0
10-03-2022, 00:03:18,    168,    0.4,    7.4,   0.00,   0.00, 1012.3,   74.2, -999.0
10-03-2022, 00:03:27,    167,    0.9,    7.4,   0.00,   0.00, 1012.3,   74.2, -999.0
10-03-2022, 00:03:37,    156,    0.7,    7.4,   0.00,   0.00, 1012.3,   74.3, -999.0
10-03-2022, 00:03:47,    157,    0.0,    7.3,   0.00,   0.00, 1012.2,   73.9, -999.0
10-03-2022, 00:03:57,    157,    0.0,    7.3,   0.00,   0.00, 1012.1,   73.9, -999.0
10-03-2022, 00:04:07,    156,    0.0,    7.3,   0.00,   0.00, 1012.2,   74.0, -999.0
10-03-2022, 00:04:17,    157,    0.0,    7.3,   0.00,   0.00, 1012.1,   73.8, -999.0
10-03-2022, 00:04:27,    157,    0.0,    7.3,   0.00,   0.00, 1012.1,   73.8, -999.0
10-03-2022, 00:04:37,    157,    0.0,    7.3,   0.00,   0.00, 1012.1,   73.8, -999.0
10-03-2022, 00:04:47,    157,    0.0,    7.3,   0.00,   0.00, 1012.1,   73.8, -999.0
10-03-2022, 00:04:57,    156,    0.0,    7.2,   0.00,   0.00, 1012.1,   73.7, -999.0
10-03-2022, 00:05:07,    156,    0.0,    7.3,   0.00,   0.00, 1012.1,   73.8, -999.0
10-03-2022, 00:05:17,    156,    0.0,    7.2,   0.00,   0.00, 1012.2,   73.8, -999.0
10-03-2022, 00:05:27,    157,    0.1,    7.3,   0.00,   0.00, 1012.2,   74.1, -999.0
10-03-2022, 00:05:37,    157,    0.7,    7.3,   0.00,   0.00, 1012.3,   74.2, -999.0
10-03-2022, 00:05:47,    157,    0.8,    7.4,   0.00,   0.00, 1012.3,   74.4, -999.0
10-03-2022, 00:05:57,    157,    0.4,    7.3,   0.00,   0.00, 1012.3,   74.5, -999.0
10-03-2022, 00:06:07,    157,    0.4,    7.5,   0.00,   0.00, 1012.3,   74.5, -999.0
10-03-2022, 00:06:16,    157,    0.0,    7.3,   0.00,   0.00, 1012.2,   74.1, -999.0
10-03-2022, 00:06:27,    157,    0.0,    7.3,   0.00,   0.00, 1012.2,   74.1, -999.0
10-03-2022, 00:06:37,    157,    0.0,    7.3,   0.00,   0.00, 1012.2,   74.0, -999.0
10-03-2022, 00:06:46,    157,    0.0,    7.3,   0.00,   0.00, 1012.1,   73.9, -999.0
10-03-2022, 00:06:56,    157,    0.0,    7.3,   0.00,   0.00, 1012.1,   73.9, -999.0
10-03-2022, 00:07:06,    157,    0.0,    7.3,   0.00,   0.00, 1012.2,   73.8, -999.0
10-03-2022, 00:07:16,    157,    0.0,    7.3,   0.00,   0.00, 1012.1,   73.8, -999.0
10-03-2022, 00:07:26,    157,    0.4,    7.3,   0.00,   0.00, 1012.2,   74.1, -999.0
10-03-2022, 00:07:36,    156,    0.8,    7.4,   0.00,   0.00, 1012.3,   74.3, -999.0
10-03-2022, 00:07:46,    161,    0.6,    7.5,   0.00,   0.00, 1012.3,   74.6, -999.0
10-03-2022, 00:07:56,    160,    0.8,    7.5,   0.00,   0.00, 1012.3,   74.6, -999.0
10-03-2022, 00:08:06,    160,    0.0,    7.4,   0.00,   0.00, 1012.2,   74.2, -999.0
10-03-2022, 00:08:16,    170,    0.0,    7.4,   0.00,   0.00, 1012.1,   74.0, -999.0
10-03-2022, 00:08:26,    170,    0.0,    7.3,   0.00,   0.00, 1012.2,   74.1, -999.0
10-03-2022, 00:08:36,    170,    0.0,    7.4,   0.00,   0.00, 1012.2,   74.0, -999.0
10-03-2022, 00:08:46,    170,    0.0,    7.3,   0.00,   0.00, 1012.2,   73.8, -999.0
10-03-2022, 00:08:56,    171,    0.0,    7.3,   0.00,   0.00, 1012.2,   73.9, -999.0
10-03-2022, 00:09:06,    171,    0.2,    7.4,   0.00,   0.00, 1012.3,   74.0, -999.0
10-03-2022, 00:09:16,    171,    0.4,    7.3,   0.00,   0.00, 1012.3,   74.1, -999.0
10-03-2022, 00:09:25,    170,    0.3,    7.3,   0.00,   0.00, 1012.3,   73.9, -999.0
10-03-2022, 00:09:36,    170,    0.0,    7.3,   0.00,   0.00, 1012.2,   73.8, -999.0
10-03-2022, 00:09:46,    170,    0.0,    7.3,   0.00,   0.00, 1012.2,   73.8, -999.0
10-03-2022, 00:09:55,    171,    0.0,    7.3,   0.00,   0.00, 1012.2,   73.9, -999.0
10-03-2022, 00:10:05,    170,    0.0,    7.3,   0.00,   0.00, 1012.1,   74.0, -999.0
10-03-2022, 00:10:16,    170,    0.1,    7.3,   0.00,   0.00, 1012.2,   74.2, -999.0
10-03-2022, 00:10:25,    170,    0.4,    7.4,   0.00,   0.00, 1012.3,   74.2, -999.0
10-03-2022, 00:10:35,    170,    0.0,    7.4,   0.00,   0.00, 1012.2,   74.1, -999.0
10-03-2022, 00:10:45,    170,    0.0,    7.3,   0.00,   0.00, 1012.1,   73.9, -999.0
10-03-2022, 00:10:55,    170,    0.0,    7.3,   0.00,   0.00, 1012.2,   73.9, -999.0
10-03-2022, 00:11:05,    170,    0.1,    7.4,   0.00,   0.00, 1012.2,   74.0, -999.0
10-03-2022, 00:11:15,    146,    0.9,    7.5,   0.00,   0.00, 1012.3,   74.4, -999.0
10-03-2022, 00:11:25,    146,    0.4,    7.4,   0.00,   0.00, 1012.3,   74.2, -999.0
10-03-2022, 00:11:35,    146,    0.1,    7.4,   0.00,   0.00, 1012.2,   73.9, -999.0
10-03-2022, 00:11:45,    146,    0.0,    7.4,   0.00,   0.00, 1012.2,   73.9, -999.0
10-03-2022, 00:11:55,    146,    0.0,    7.4,   0.00,   0.00, 1012.2,   73.9, -999.0
10-03-2022, 00:12:05,    146,    0.1,    7.5,   0.00,   0.00, 1012.2,   74.0, -999.0
10-03-2022, 00:12:15,    146,    0.0,    7.4,   0.00,   0.00, 1012.2,   73.9, -999.0
10-03-2022, 00:12:25,    146,    0.0,    7.4,   0.00,   0.00, 1012.2,   73.9, -999.0
10-03-2022, 00:12:35,    146,    0.0,    7.4,   0.00,   0.00, 1012.2,   73.7, -999.0
10-03-2022, 00:12:45,    150,    0.8,    7.4,   0.00,   0.00, 1012.3,   74.1, -999.0
10-03-2022, 00:12:55,    150,    0.3,    7.5,   0.00,   0.00, 1012.3,   73.9, -999.0
10-03-2022, 00:13:04,    149,    0.0,    7.4,   0.00,   0.00, 1012.2,   73.7, -999.0
10-03-2022, 00:13:14,    149,    0.3,    7.5,   0.00,   0.00, 1012.3,   74.2, -999.0
10-03-2022, 00:13:25,    149,    0.0,    7.5,   0.00,   0.00, 1012.2,   73.9, -999.0
10-03-2022, 00:13:34,    150,    0.1,    7.5,   0.00,   0.00, 1012.2,   74.0, -999.0
10-03-2022, 00:13:44,    150,    0.7,    7.5,   0.00,   0.00, 1012.3,   74.1, -999.0
10-03-2022, 00:13:55,    150,    0.6,    7.5,   0.00,   0.00, 1012.3,   73.9, -999.0
10-03-2022, 00:14:04,    149,    0.5,    7.5,   0.00,   0.00, 1012.3,   73.8, -999.0
10-03-2022, 00:14:14,    149,    0.0,    7.3,   0.00,   0.00, 1012.2,   73.5, -999.0
10-03-2022, 00:14:24,    150,    0.0,    7.4,   0.00,   0.00, 1012.2,   73.5, -999.0
10-03-2022, 00:14:34,    151,    0.0,    7.4,   0.00,   0.00, 1012.2,   73.4, -999.0
10-03-2022, 00:14:44,    151,    0.0,    7.4,   0.00,   0.00, 1012.2,   73.6, -999.0
10-03-2022, 00:14:54,    150,    0.0,    7.4,   0.00,   0.00, 1012.2,   73.5, -999.0
10-03-2022, 00:15:04,    150,    0.0,    7.3,   0.00,   0.00, 1012.2,   73.5, -999.0
10-03-2022, 00:15:14,    150,    0.0,    7.3,   0.00,   0.00, 1012.2,   73.5, -999.0
10-03-2022, 00:15:24,    150,    0.0,    7.4,   0.00,   0.00, 1012.2,   73.5, -999.0
10-03-2022, 00:15:34,    150,    0.0,    7.3,   0.00,   0.00, 1012.2,   73.4, -999.0
10-03-2022, 00:15:44,    149,    0.0,    7.3,   0.00,   0.00, 1012.2,   73.4, -999.0
10-03-2022, 00:15:54,    150,    0.0,    7.3,   0.00,   0.00, 1012.2,   73.5, -999.0
10-03-2022, 00:16:04,    150,    0.0,    7.3,   0.00,   0.00, 1012.2,   73.6, -999.0
10-03-2022, 00:16:13,    151,    0.0,    7.3,   0.00,   0.00, 1012.2,   73.6, -999.0
10-03-2022, 00:16:24,    150,    0.0,    7.3,   0.00,   0.00, 1012.2,   73.5, -999.0
10-03-2022, 00:16:34,    150,    0.0,    7.3,   0.00,   0.00, 1012.2,   73.6, -999.0
10-03-2022, 00:16:43,    150,    0.0,    7.4,   0.00,   0.00, 1012.2,   73.6, -999.0
10-03-2022, 00:16:53,    166,    0.1,    7.3,   0.00,   0.00, 1012.2,   73.7, -999.0
10-03-2022, 00:17:04,    168,    0.1,    7.3,   0.00,   0.00, 1012.3,   73.8, -999.0
10-03-2022, 00:17:13,    168,    0.1,    7.3,   0.00,   0.00, 1012.2,   73.8, -999.0
10-03-2022, 00:17:23,    117,    0.9,    7.4,   0.00,   0.00, 1012.3,   74.1, -999.0
10-03-2022, 00:17:33,    117,    0.0,    7.4,   0.00,   0.00, 1012.3,   73.8, -999.0
10-03-2022, 00:17:43,    162,    0.0,    7.4,   0.00,   0.00, 1012.2,   73.7, -999.0
10-03-2022, 00:17:53,    161,    0.9,    7.4,   0.00,   0.00, 1012.3,   74.0, -999.0
10-03-2022, 00:18:03,    162,    0.1,    7.4,   0.00,   0.00, 1012.3,   73.9, -999.0
10-03-2022, 00:18:13,    162,    0.3,    7.4,   0.00,   0.00, 1012.3,   74.0, -999.0
10-03-2022, 00:18:23,    162,    0.0,    7.4,   0.00,   0.00, 1012.3,   73.9, -999.0
10-03-2022, 00:18:33,    162,    0.3,    7.5,   0.00,   0.00, 1012.3,   74.0, -999.0
10-03-2022, 00:18:43,    162,    0.2,    7.4,   0.00,   0.00, 1012.3,   73.9, -999.0
10-03-2022, 00:18:53,    165,    0.1,    7.3,   0.00,   0.00, 1012.2,   73.8, -999.0
10-03-2022, 00:19:03,    165,    0.1,    7.3,   0.00,   0.00, 1012.2,   73.7, -999.0
10-03-2022, 00:19:13,    165,    0.0,    7.3,   0.00,   0.00, 1012.2,   73.7, -999.0
10-03-2022, 00:19:22,    164,    0.0,    7.3,   0.00,   0.00, 1012.2,   73.6, -999.0
10-03-2022, 00:19:33,    165,    0.0,    7.3,   0.00,   0.00, 1012.2,   73.7, -999.0
10-03-2022, 00:19:43,    164,    0.0,    7.4,   0.00,   0.00, 1012.2,   73.9, -999.0
10-03-2022, 00:19:52,    163,    0.0,    7.4,   0.00,   0.00, 1012.2,   73.9, -999.0
10-03-2022, 00:20:03,    155,    0.7,    7.5,   0.00,   0.00, 1012.3,   74.2, -999.0
10-03-2022, 00:20:13,    148,    1.0,    7.5,   0.00,   0.00, 1012.4,   74.2, -999.0
10-03-2022, 00:20:22,    147,    0.2,    7.5,   0.00,   0.00, 1012.3,   74.0, -999.0
10-03-2022, 00:20:32,    148,    0.0,    7.4,   0.00,   0.00, 1012.2,   73.7, -999.0
10-03-2022, 00:20:43,    155,    0.2,    7.4,   0.00,   0.00, 1012.2,   73.9, -999.0
10-03-2022, 00:20:52,    167,    2.0,    7.4,   0.00,   0.00, 1012.3,   74.0, -999.0
10-03-2022, 00:21:02,    187,    0.7,    7.5,   0.00,   0.00, 1012.3,   73.8, -999.0
10-03-2022, 00:21:12,    187,    0.0,    7.4,   0.00,   0.00, 1012.2,   73.6, -999.0
10-03-2022, 00:21:22,    156,    0.4,    7.5,   0.00,   0.00, 1012.3,   73.9, -999.0
10-03-2022, 00:21:32,    155,    1.1,    7.5,   0.00,   0.00, 1012.3,   74.0, -999.0
10-03-2022, 00:21:42,    153,    0.5,    7.6,   0.00,   0.00, 1012.3,   74.1, -999.0
10-03-2022, 00:21:52,    143,    1.5,    7.6,   0.00,   0.00, 1012.3,   74.2, -999.0
10-03-2022, 00:22:02,    143,    0.3,    7.5,   0.00,   0.00, 1012.3,   74.2, -999.0
10-03-2022, 00:22:12,    143,    0.0,    7.6,   0.00,   0.00, 1012.2,   73.8, -999.0
10-03-2022, 00:22:22,    143,    0.0,    7.5,   0.00,   0.00, 1012.2,   73.7, -999.0
10-03-2022, 00:22:32,    146,    0.0,    7.5,   0.00,   0.00, 1012.2,   73.6, -999.0
10-03-2022, 00:22:42,    143,    0.0,    7.4,   0.00,   0.00, 1012.2,   73.4, -999.0
10-03-2022, 00:22:52,    143,    1.1,    7.6,   0.00,   0.00, 1012.3,   73.8, -999.0
10-03-2022, 00:23:01,    142,    0.3,    7.5,   0.00,   0.00, 1012.3,   73.6, -999.0
10-03-2022, 00:23:12,    144,    0.0,    7.4,   0.00,   0.00, 1012.2,   73.3, -999.0
10-03-2022, 00:23:22,    142,    0.0,    7.5,   0.00,   0.00, 1012.2,   73.3, -999.0
10-03-2022, 00:23:31,    144,    0.7,    7.5,   0.00,   0.00, 1012.3,   73.4, -999.0
10-03-2022, 00:23:41,    143,    0.1,    7.5,   0.00,   0.00, 1012.2,   73.3, -999.0
10-03-2022, 00:23:52,    143,    0.0,    7.4,   0.00,   0.00, 1012.2,   73.2, -999.0
10-03-2022, 00:24:01,    135,    1.1,    7.4,   0.00,   0.00, 1012.3,   73.4, -999.0
10-03-2022, 00:24:11,    172,    1.0,    7.5,   0.00,   0.00, 1012.3,   73.6, -999.0
10-03-2022, 00:24:21,    171,    0.8,    7.5,   0.00,   0.00, 1012.3,   73.6, -999.0
10-03-2022, 00:24:31,    149,    0.5,    7.5,   0.00,   0.00, 1012.3,   73.6, -999.0
10-03-2022, 00:24:41,    149,    0.5,    7.4,   0.00,   0.00, 1012.3,   73.6, -999.0
10-03-2022, 00:24:51,    160,    0.5,    7.5,   0.00,   0.00, 1012.3,   73.5, -999.0
10-03-2022, 00:25:01,    145,    0.7,    7.5,   0.00,   0.00, 1012.3,   73.8, -999.0
10-03-2022, 00:25:11,    144,    0.2,    7.5,   0.00,   0.00, 1012.3,   73.6, -999.0
10-03-2022, 00:25:21,    145,    0.2,    7.5,   0.00,   0.00, 1012.3,   73.6, -999.0
10-03-2022, 00:25:31,    145,    0.3,    7.5,   0.00,   0.00, 1012.3,   73.8, -999.0
10-03-2022, 00:25:41,    144,    0.7,    7.5,   0.00,   0.00, 1012.3,   73.9, -999.0
10-03-2022, 00:25:51,    144,    0.0,    7.5,   0.00,   0.00, 1012.2,   73.6, -999.0
10-03-2022, 00:26:01,    173,    1.0,    7.5,   0.00,   0.00, 1012.3,   73.6, -999.0
10-03-2022, 00:26:11,    174,    0.3,    7.5,   0.00,   0.00, 1012.3,   73.4, -999.0
10-03-2022, 00:26:21,    174,    0.0,    7.4,   0.00,   0.00, 1012.2,   73.2, -999.0
10-03-2022, 00:26:31,    174,    0.0,    7.4,   0.00,   0.00, 1012.2,   73.2, -999.0
10-03-2022, 00:26:40,    174,    0.0,    7.4,   0.00,   0.00, 1012.2,   73.3, -999.0
10-03-2022, 00:26:51,    174,    0.0,    7.5,   0.00,   0.00, 1012.2,   73.4, -999.0
10-03-2022, 00:27:01,    174,    0.0,    7.5,   0.00,   0.00, 1012.2,   73.4, -999.0
10-03-2022, 00:27:10,    173,    0.1,    7.4,   0.00,   0.00, 1012.3,   73.6, -999.0
10-03-2022, 00:27:20,    173,    0.0,    7.5,   0.00,   0.00, 1012.2,   73.5, -999.0
10-03-2022, 00:27:31,    173,    0.0,    7.5,   0.00,   0.00, 1012.2,   73.2, -999.0
10-03-2022, 00:27:40,    173,    0.3,    7.5,   0.00,   0.00, 1012.2,   73.4, -999.0
10-03-2022, 00:27:50,    152,    0.7,    7.6,   0.00,   0.00, 1012.3,   73.7, -999.0
10-03-2022, 00:28:00,    149,    0.6,    7.5,   0.00,   0.00, 1012.3,   73.5, -999.0
10-03-2022, 00:28:10,    148,    0.3,    7.6,   0.00,   0.00, 1012.3,   73.6, -999.0
10-03-2022, 00:28:20,    150,    0.0,    7.5,   0.00,   0.00, 1012.2,   73.3, -999.0
10-03-2022, 00:28:30,    150,    0.0,    7.5,   0.00,   0.00, 1012.1,   73.0, -999.0
10-03-2022, 00:28:40,    150,    0.0,    7.5,   0.00,   0.00, 1012.2,   73.2, -999.0
10-03-2022, 00:28:50,    151,    0.0,    7.6,   0.00,   0.00, 1012.2,   73.1, -999.0
10-03-2022, 00:29:00,    151,    0.0,    7.5,   0.00,   0.00, 1012.2,   72.9, -999.0
10-03-2022, 00:29:10,    151,    0.0,    7.4,   0.00,   0.00, 1012.2,   72.9, -999.0
10-03-2022, 00:29:20,    151,    0.0,    7.4,   0.00,   0.00, 1012.2,   72.8, -999.0
10-03-2022, 00:29:30,    151,    0.0,    7.4,   0.00,   0.00, 1012.2,   72.8, -999.0
10-03-2022, 00:29:40,    151,    0.0,    7.4,   0.00,   0.00, 1012.2,   73.0, -999.0
10-03-2022, 00:29:49,    151,    0.0,    7.4,   0.00,   0.00, 1012.2,   73.0, -999.0
10-03-2022, 00:30:00,    151,    0.0,    7.4,   0.00,   0.00, 1012.1,   73.0, -999.0
10-03-2022, 00:30:10,    151,    0.0,    7.4,   0.00,   0.00, 1012.2,   73.0, -999.0
10-03-2022, 00:30:19,    151,    0.0,    7.4,   0.00,   0.00, 1012.2,   73.2, -999.0
10-03-2022, 00:30:30,    152,    0.0,    7.4,   0.00,   0.00, 1012.2,   73.2, -999.0
10-03-2022, 00:30:40,    150,    2.7,    7.5,   0.00,   0.00, 1012.3,   73.5, -999.0
10-03-2022, 00:30:49,    149,    2.4,    7.6,   0.00,   0.00, 1012.3,   73.6, -999.0
10-03-2022, 00:30:59,    149,    0.9,    7.5,   0.00,   0.00, 1012.3,   73.5, -999.0
10-03-2022, 00:31:09,    149,    0.4,    7.5,   0.00,   0.00, 1012.3,   73.4, -999.0
10-03-2022, 00:31:19,    149,    0.6,    7.5,   0.00,   0.00, 1012.3,   73.4, -999.0
10-03-2022, 00:31:29,    150,    0.0,    7.4,   0.00,   0.00, 1012.2,   73.0, -999.0
10-03-2022, 00:31:39,    150,    0.0,    7.4,   0.00,   0.00, 1012.2,   72.9, -999.0
10-03-2022, 00:31:49,    150,    0.0,    7.4,   0.00,   0.00, 1012.2,   73.0, -999.0
10-03-2022, 00:31:59,    150,    0.0,    7.3,   0.00,   0.00, 1012.2,   73.1, -999.0
10-03-2022, 00:32:09,    150,    0.0,    7.4,   0.00,   0.00, 1012.2,   73.0, -999.0
10-03-2022, 00:32:19,    150,    0.0,    7.4,   0.00,   0.00, 1012.2,   73.1, -999.0
10-03-2022, 00:32:29,    150,    0.0,    7.4,   0.00,   0.00, 1012.2,   73.3, -999.0
10-03-2022, 00:32:39,    150,    0.0,    7.5,   0.00,   0.00, 1012.2,   73.3, -999.0
10-03-2022, 00:32:49,    149,    0.0,    7.5,   0.00,   0.00, 1012.2,   73.2, -999.0
10-03-2022, 00:32:59,    149,    0.0,    7.4,   0.00,   0.00, 1012.2,   73.3, -999.0
10-03-2022, 00:33:09,    150,    0.1,    7.5,   0.00,   0.00, 1012.2,   73.3, -999.0
10-03-2022, 00:33:19,    150,    0.6,    7.5,   0.00,   0.00, 1012.4,   73.5, -999.0
10-03-2022, 00:33:28,    160,    0.3,    7.5,   0.00,   0.00, 1012.4,   73.3, -999.0
10-03-2022, 00:33:39,    161,    0.0,    7.4,   0.00,   0.00, 1012.2,   72.9, -999.0
10-03-2022, 00:33:49,    163,    0.0,    7.4,   0.00,   0.00, 1012.3,   73.0, -999.0
10-03-2022, 00:33:58,    162,    0.0,    7.4,   0.00,   0.00, 1012.2,   72.9, -999.0
10-03-2022, 00:34:08,    162,    0.0,    7.3,   0.00,   0.00, 1012.2,   72.9, -999.0
10-03-2022, 00:34:19,    162,    0.0,    7.4,   0.00,   0.00, 1012.2,   72.9, -999.0
10-03-2022, 00:34:28,    162,    0.0,    7.4,   0.00,   0.00, 1012.2,   73.0, -999.0
10-03-2022, 00:34:38,    161,    0.0,    7.2,   0.00,   0.00, 1012.2,   72.9, -999.0
10-03-2022, 00:34:48,    162,    0.0,    7.3,   0.00,   0.00, 1012.2,   73.0, -999.0
10-03-2022, 00:34:58,    162,    0.0,    7.4,   0.00,   0.00, 1012.3,   73.2, -999.0
10-03-2022, 00:35:08,    161,    0.0,    7.4,   0.00,   0.00, 1012.3,   73.2, -999.0
10-03-2022, 00:35:18,    163,    0.0,    7.4,   0.00,   0.00, 1012.3,   73.2, -999.0
10-03-2022, 00:35:28,    160,    0.1,    7.4,   0.00,   0.00, 1012.3,   73.4, -999.0
10-03-2022, 00:35:38,    161,    0.0,    7.4,   0.00,   0.00, 1012.2,   73.2, -999.0
10-03-2022, 00:35:48,    161,    0.0,    7.4,   0.00,   0.00, 1012.2,   73.1, -999.0
10-03-2022, 00:35:58,    161,    0.0,    7.4,   0.00,   0.00, 1012.3,   73.2, -999.0
10-03-2022, 00:36:08,    161,    0.0,    7.3,   0.00,   0.00, 1012.3,   73.2, -999.0
10-03-2022, 00:36:18,    161,    0.0,    7.3,   0.00,   0.00, 1012.3,   73.1, -999.0
10-03-2022, 00:36:28,    161,    0.0,    7.4,   0.00,   0.00, 1012.3,   73.3, -999.0
10-03-2022, 00:36:37,    161,    0.0,    7.5,   0.00,   0.00, 1012.3,   73.4, -999.0
10-03-2022, 00:36:48,    111,    0.7,    7.5,   0.00,   0.00, 1012.4,   73.5, -999.0
10-03-2022, 00:36:58,    118,    0.2,    7.4,   0.00,   0.00, 1012.3,   73.4, -999.0
10-03-2022, 00:37:07,    190,    0.3,    7.5,   0.00,   0.00, 1012.4,   73.5, -999.0
10-03-2022, 00:37:17,    130,    0.2,    7.5,   0.00,   0.00, 1012.4,   73.4, -999.0
10-03-2022, 00:37:28,    130,    0.0,    7.5,   0.00,   0.00, 1012.3,   73.2, -999.0
10-03-2022, 00:37:37,    129,    0.0,    7.5,   0.00,   0.00, 1012.3,   73.2, -999.0
10-03-2022, 00:37:47,    130,    0.0,    7.5,   0.00,   0.00, 1012.3,   73.1, -999.0
10-03-2022, 00:37:58,    130,    0.0,    7.5,   0.00,   0.00, 1012.3,   73.1, -999.0
10-03-2022, 00:38:07,    130,    0.0,    7.5,   0.00,   0.00, 1012.3,   73.3, -999.0
10-03-2022, 00:38:17,    130,    0.1,    7.6,   0.00,   0.00, 1012.4,   73.3, -999.0
10-03-2022, 00:38:27,    133,    0.2,    7.6,   0.00,   0.00, 1012.4,   73.4, -999.0
10-03-2022, 00:38:37,    159,    0.2,    7.6,   0.00,   0.00, 1012.4,   73.4, -999.0
10-03-2022, 00:38:47,    164,    0.7,    7.6,   0.00,   0.00, 1012.4,   73.2, -999.0
10-03-2022, 00:38:57,    184,    0.6,    7.5,   0.00,   0.00, 1012.4,   73.2, -999.0
10-03-2022, 00:39:07,    184,    0.0,    7.4,   0.00,   0.00, 1012.3,   72.7, -999.0
10-03-2022, 00:39:17,    183,    0.0,    7.3,   0.00,   0.00, 1012.3,   72.7, -999.0
10-03-2022, 00:39:27,    184,    0.0,    7.4,   0.00,   0.00, 1012.3,   72.9, -999.0
10-03-2022, 00:39:37,    184,    0.0,    7.3,   0.00,   0.00, 1012.3,   72.8, -999.0
10-03-2022, 00:39:47,    183,    0.0,    7.3,   0.00,   0.00, 1012.3,   72.9, -999.0
10-03-2022, 00:39:57,    183,    0.0,    7.3,   0.00,   0.00, 1012.3,   73.1, -999.0
10-03-2022, 00:40:07,    183,    0.0,    7.5,   0.00,   0.00, 1012.3,   73.1, -999.0
10-03-2022, 00:40:16,    183,    0.0,    7.5,   0.00,   0.00, 1012.3,   73.1, -999.0
10-03-2022, 00:40:27,    184,    0.0,    7.5,   0.00,   0.00, 1012.3,   73.0, -999.0
10-03-2022, 00:40:37,    183,    0.0,    7.5,   0.00,   0.00, 1012.3,   73.2, -999.0
10-03-2022, 00:40:46,    168,    0.7,    7.5,   0.00,   0.00, 1012.5,   73.5, -999.0
10-03-2022, 00:40:56,    167,    0.1,    7.6,   0.00,   0.00, 1012.4,   73.2, -999.0
10-03-2022, 00:41:07,    167,    0.0,    7.5,   0.00,   0.00, 1012.3,   73.1, -999.0
10-03-2022, 00:41:16,    167,    0.1,    7.5,   0.00,   0.00, 1012.4,   73.3, -999.0
10-03-2022, 00:41:26,    167,    0.2,    7.7,   0.00,   0.00, 1012.4,   73.5, -999.0
10-03-2022, 00:41:36,    167,    0.2,    7.7,   0.00,   0.00, 1012.4,   73.6, -999.0
10-03-2022, 00:41:46,    169,    0.0,    7.6,   0.00,   0.00, 1012.4,   73.2, -999.0
10-03-2022, 00:41:56,    169,    0.1,    7.5,   0.00,   0.00, 1012.4,   73.2, -999.0
10-03-2022, 00:42:06,    169,    0.0,    7.4,   0.00,   0.00, 1012.4,   72.8, -999.0
10-03-2022, 00:42:16,    169,    0.4,    7.5,   0.00,   0.00, 1012.4,   73.0, -999.0
10-03-2022, 00:42:26,    169,    0.1,    7.5,   0.00,   0.00, 1012.4,   72.9, -999.0
10-03-2022, 00:42:36,    169,    0.0,    7.6,   0.00,   0.00, 1012.4,   72.9, -999.0
10-03-2022, 00:42:46,    169,    0.2,    7.5,   0.00,   0.00, 1012.5,   73.1, -999.0
10-03-2022, 00:42:56,    169,    0.0,    7.5,   0.00,   0.00, 1012.3,   72.8, -999.0
10-03-2022, 00:43:06,    169,    0.0,    7.5,   0.00,   0.00, 1012.3,   72.7, -999.0
10-03-2022, 00:43:16,    169,    0.0,    7.5,   0.00,   0.00, 1012.3,   72.8, -999.0
10-03-2022, 00:43:26,    169,    0.1,    7.5,   0.00,   0.00, 1012.4,   73.0, -999.0
10-03-2022, 00:43:36,    167,    0.4,    7.5,   0.00,   0.00, 1012.5,   73.0, -999.0
10-03-2022, 00:43:46,    165,    0.2,    7.5,   0.00,   0.00, 1012.4,   73.0, -999.0
10-03-2022, 00:43:55,    165,    0.2,    7.6,   0.00,   0.00, 1012.4,   73.0, -999.0
10-03-2022, 00:44:05,    165,    0.1,    7.6,   0.00,   0.00, 1012.4,   73.1, -999.0
10-03-2022, 00:44:16,    164,    0.0,    7.6,   0.00,   0.00, 1012.3,   73.0, -999.0
10-03-2022, 00:44:25,    164,    0.0,    7.5,   0.00,   0.00, 1012.3,   72.9, -999.0
10-03-2022, 00:44:35,    164,    0.0,    7.5,   0.00,   0.00, 1012.4,   72.7, -999.0
10-03-2022, 00:44:45,    164,    0.0,    7.5,   0.00,   0.00, 1012.3,   72.7, -999.0
10-03-2022, 00:44:55,    164,    0.0,    7.5,   0.00,   0.00, 1012.3,   72.8, -999.0
10-03-2022, 00:45:05,    164,    0.0,    7.5,   0.00,   0.00, 1012.3,   72.8, -999.0
10-03-2022, 00:45:15,    164,    0.0,    7.5,   0.00,   0.00, 1012.3,   72.8, -999.0
10-03-2022, 00:45:25,    164,    0.0,    7.6,   0.00,   0.00, 1012.3,   72.7, -999.0
10-03-2022, 00:45:35,    161,    0.0,    7.6,   0.00,   0.00, 1012.3,   72.8, -999.0
10-03-2022, 00:45:45,    164,    0.0,    7.6,   0.00,   0.00, 1012.3,   72.7, -999.0
10-03-2022, 00:45:55,    163,    0.0,    7.5,   0.00,   0.00, 1012.3,   72.6, -999.0
10-03-2022, 00:46:05,    163,    0.1,    7.6,   0.00,   0.00, 1012.4,   72.9, -999.0
10-03-2022, 00:46:15,    163,    1.7,    7.6,   0.00,   0.00, 1012.5,   72.8, -999.0
10-03-2022, 00:46:25,    158,    1.4,    7.5,   0.00,   0.00, 1012.4,   72.8, -999.0
10-03-2022, 00:46:35,    158,    0.5,    7.5,   0.00,   0.00, 1012.4,   72.5, -999.0
10-03-2022, 00:46:45,    157,    1.6,    7.5,   0.00,   0.00, 1012.4,   72.9, -999.0